Theta_e
320 325 329 329 333 335 335 333 330 331 331 330 330 330 331 334 337 344 338 338 337 336 331 332 333 332 330 329 330 327 325 324 330 331 331 330 327 328 325 328 328 325 318 318 320 313 313 312 312
321 328 327 330 333 335 334 330 332 334 333 331 331 331 331 336 338 336 337 338 337 336 328 331 333 331 330 330 328 326 322 328 329 328 329 329 329 328 324 332 329 326 317 315 315 314 312 312 312
323 328 327 334 335 336 334 330 333 334 333 332 333 332 334 337 338 336 338 338 337 337 337 333 334 328 330 330 328 319 315 322 328 328 326 326 329 328 325 327 323 318 313 322 320 314 312 312 313
326 328 329 332 334 332 329 329 333 333 332 333 333 334 335 336 337 337 337 338 337 337 336 334 332 327 330 330 329 321 315 315 319 328 326 327 320 328 326 327 324 318 324 318 313 312 312 313 313
326 328 331 336 336 331 325 328 332 332 331 332 332 331 336 335 338 337 336 337 337 336 337 333 331 326 329 330 329 325 317 313 315 316 322 318 321 327 327 325 327 322 318 315 313 313 313 313 313
326 329 331 334 335 329 325 329 330 331 331 332 331 330 337 335 336 335 335 337 337 336 336 330 329 326 326 328 330 328 320 316 314 318 320 314 315 325 326 324 323 326 318 313 313 313 313 313 313
327 330 332 332 333 332 329 329 330 331 330 331 330 328 336 334 337 333 335 337 336 335 335 330 326 326 324 327 330 330 325 320 312 315 313 317 313 314 322 318 320 317 315 314 314 313 314 314 314
324 328 330 330 331 332 329 329 329 329 331 331 330 328 334 335 332 331 334 336 336 335 334 332 326 325 326 325 329 329 327 321 312 311 312 313 313 313 313 314 314 313 314 314 314 314 314 314 314
324 326 329 330 331 331 328 329 328 328 330 330 330 331 332 333 328 333 336 335 335 334 331 331 331 324 329 328 328 327 325 321 315 311 311 313 314 313 313 313 313 313 314 314 314 314 314 315 316
324 327 328 328 328 328 325 326 328 328 328 330 331 331 335 331 326 329 333 334 335 334 331 330 331 329 331 330 330 326 325 321 318 312 311 314 316 314 315 315 313 313 314 314 315 315 315 317 320
325 325 325 326 324 323 324 326 325 327 326 328 330 332 333 332 326 329 330 333 334 334 333 330 330 330 331 330 330 328 323 323 317 314 311 316 325 323 318 315 313 313 314 315 315 315 316 318 323
326 325 325 324 322 321 323 324 326 325 326 327 327 331 332 332 327 326 327 331 332 334 334 331 330 331 331 331 330 329 327 326 323 318 313 314 322 320 317 314 314 314 314 315 316 316 318 318 317
326 326 325 325 324 322 323 323 322 325 327 326 326 330 332 334 332 328 327 327 331 333 334 333 330 329 331 331 329 331 328 327 328 321 315 314 317 316 315 316 315 314 314 315 317 318 320 317 320
326 326 326 325 325 324 323 322 323 323 325 325 326 325 331 332 333 332 331 328 324 333 334 333 332 329 329 330 329 327 325 328 327 322 319 313 312 314 315 316 317 316 315 316 317 319 319 320 323
325 325 325 325 325 325 323 323 323 324 324 322 325 325 326 329 331 332 331 329 325 323 332 333 332 332 331 329 328 328 327 325 325 323 318 318 312 313 315 315 316 316 316 316 319 321 322 322 322
325 325 327 325 325 325 324 326 323 324 324 323 322 323 325 326 328 331 332 330 328 322 323 332 332 330 332 331 329 329 329 328 326 324 320 316 316 312 313 314 315 316 316 316 316 317 319 320 323
326 328 327 326 325 325 324 326 324 324 323 324 324 323 323 325 326 328 330 331 329 324 322 323 328 327 330 332 331 331 330 328 328 326 324 319 315 315 313 313 314 316 316 316 316 317 320 323 322
328 328 326 326 325 326 325 324 323 324 325 326 327 327 326 325 325 326 327 330 331 327 327 330 330 329 325 331 331 331 331 330 330 329 326 324 320 316 314 313 313 315 316 316 316 317 320 322 322
323 321 326 325 323 323 325 325 323 324 325 323 324 325 325 326 327 326 325 327 328 329 328 331 332 330 330 327 331 332 331 330 330 330 329 327 324 320 316 314 313 314 315 316 316 316 317 319 321
322 320 321 323 322 322 322 323 321 322 323 324 324 324 323 322 323 326 325 324 325 326 326 330 331 332 331 328 325 328 331 330 330 330 331 329 328 326 321 316 314 313 314 315 316 316 317 319 320
321 321 322 322 321 321 322 323 322 322 322 323 323 324 324 323 322 322 324 325 324 324 325 325 325 329 329 329 328 329 330 331 330 329 329 329 329 329 327 327 322 314 314 314 315 315 316 317 319
322 318 320 322 321 324 321 326 320 320 321 321 323 323 323 323 323 323 321 324 325 324 323 323 325 325 328 330 331 329 327 329 325 326 329 329 329 329 329 329 328 327 318 315 314 315 316 317 318
323 319 320 321 322 321 321 324 321 319 320 320 320 323 324 323 322 322 323 321 321 324 324 324 324 324 325 327 330 330 329 328 327 326 326 328 329 329 329 329 329 329 328 325 321 319 319 318 317
319 320 321 322 323 324 322 321 320 320 320 320 320 321 322 322 322 321 320 320 320 320 321 324 324 324 324 325 328 330 329 329 329 328 327 326 325 325 328 329 329 329 329 328 326 325 324 322 321
321 322 323 325 324 324 319 321 320 318 318 319 321 321 320 319 318 318 318 318 319 319 319 318 319 320 321 323 326 329 329 330 328 327 327 326 325 325 323 326 329 329 329 328 327 327 326 326 326
322 321 323 324 323 320 318 318 318 318 318 318 320 320 319 318 315 315 315 315 314 315 316 317 318 319 320 321 324 327 328 329 328 328 327 326 326 325 325 324 325 328 328 328 328 327 327 327 327
322 322 319 319 308 316 318 318 317 316 316 318 317 318 317 315 314 315 315 315 315 315 316 315 315 317 319 319 323 328 329 330 329 327 328 327 327 327 327 326 325 324 327 328 327 327 327 328 328
320 319 320 320 320 319 316 316 316 318 318 316 315 315 314 313 315 315 315 315 314 313 315 316 315 314 316 317 320 323 327 329 329 329 330 329 328 328 328 328 327 325 325 326 327 328 328 328 328
319 321 320 320 317 320 318 316 315 316 314 313 313 313 315 315 315 315 315 313 310 312 312 313 314 314 315 315 317 321 323 327 328 329 329 329 330 329 329 328 328 327 325 326 326 327 328 328 328
318 320 319 319 320 317 317 318 316 315 313 314 314 316 316 315 315 315 314 310 309 309 312 312 312 312 314 314 315 315 316 319 323 325 326 327 328 330 330 329 329 328 327 326 326 327 327 328 327
Wind_Speed
15 12 9 8 2 3 4 4 5 6 5 4 9 7 4 14 5 5 14 11 13 8 11 9 9 6 4 2 1 3 2 6 11 12 14 13 16 12 12 16 11 7 10 14 15 15 16 15 16
14 10 6 4 1 5 3 6 5 9 9 8 6 3 1 5 6 9 13 15 14 9 11 11 9 6 5 4 3 2 2 11 12 11 12 12 15 13 13 16 10 7 12 14 13 13 14 15 15
12 9 5 2 2 4 3 4 11 10 7 5 4 4 5 5 3 10 7 18 14 9 10 12 9 6 6 4 5 5 3 10 12 10 12 9 13 14 11 12 6 7 13 13 12 12 14 15 14
14 4 5 2 7 3 6 6 17 9 3 3 2 8 6 5 3 6 20 16 14 13 10 10 8 6 6 4 5 6 7 7 8 12 9 10 13 14 12 14 7 10 13 11 12 13 12 12 12
9 6 4 4 7 4 5 5 9 5 10 8 3 5 5 5 7 7 22 16 18 15 11 12 10 7 6 4 3 4 5 6 5 6 9 7 11 13 11 10 11 9 10 10 10 10 9 10 10
7 3 4 6 3 7 4 2 4 8 8 6 4 4 6 3 9 10 21 16 15 13 9 13 12 9 8 6 5 3 3 4 4 5 7 7 10 13 10 9 11 10 8 9 7 7 7 9 10
8 5 7 11 6 1 5 5 5 5 9 7 1 1 8 7 9 12 18 15 11 10 10 10 12 12 10 9 8 4 1 0 1 2 4 6 7 10 10 9 9 9 8 6 5 5 6 7 8
6 4 8 8 5 3 6 5 1 4 4 8 3 3 7 13 10 12 13 16 15 16 13 10 12 12 12 12 11 8 4 3 2 2 2 3 5 6 8 8 9 9 8 6 4 3 5 6 6
5 3 5 10 7 2 7 4 4 2 4 3 3 2 8 13 12 14 16 15 15 16 15 13 10 10 11 12 13 11 8 7 5 5 5 4 4 6 7 8 7 8 7 5 3 2 3 4 5
4 4 7 6 9 6 7 5 6 3 9 7 7 5 11 12 13 17 20 21 19 18 16 15 16 12 14 14 13 12 11 9 8 8 7 6 5 7 7 6 8 8 8 5 3 1 1 3 4
4 6 13 13 7 8 12 3 9 5 6 12 19 18 15 14 13 16 18 20 22 19 17 17 16 15 17 17 14 13 12 11 10 9 9 10 9 10 10 9 10 10 9 7 4 3 2 1 2
8 15 13 10 5 5 9 12 10 12 13 1 1 17 17 16 15 17 18 21 20 20 19 19 18 19 20 18 18 16 14 11 10 11 11 13 16 14 13 11 11 11 10 9 5 4 3 5 5
7 11 17 7 5 7 11 11 12 16 14 12 8 10 15 16 15 15 15 16 19 21 23 22 21 21 22 20 17 19 18 16 16 14 15 16 16 15 14 13 12 12 10 10 9 7 8 7 5
9 17 21 12 13 13 8 14 17 7 16 14 13 13 15 18 19 14 16 18 20 23 24 24 24 23 23 25 22 20 20 19 17 18 17 17 17 17 16 16 15 14 13 11 10 9 10 8 8
6 10 9 11 12 9 4 9 9 21 19 12 13 15 15 18 18 22 19 20 19 23 25 26 27 27 27 26 24 21 19 18 20 21 19 18 19 19 17 18 18 17 15 14 13 13 14 11 11
4 9 12 9 15 17 9 15 9 21 24 21 16 19 18 19 21 21 22 21 23 20 27 28 29 29 30 28 27 26 23 22 24 23 22 21 21 21 21 21 20 18 18 17 18 16 15 13 14
6 13 16 15 16 9 9 7 12 24 25 25 23 21 21 22 22 21 23 25 24 23 23 26 29 28 30 30 29 28 27 26 26 26 25 25 23 24 25 23 22 20 21 20 19 17 15 15 15
10 15 15 13 10 8 10 14 9 25 15 12 13 17 23 25 23 23 22 25 26 24 24 26 28 29 27 30 31 30 29 27 28 29 29 28 27 26 27 26 24 24 23 23 21 19 18 19 15
5 11 11 10 2 2 10 11 11 19 23 22 21 22 24 24 23 21 20 23 27 27 28 31 30 30 31 30 35 36 36 33 32 31 31 30 29 28 28 28 28 27 27 26 23 22 22 21 17
11 7 13 14 5 3 8 14 11 18 19 22 23 26 26 25 28 26 24 26 29 31 32 33 35 34 34 33 33 37 37 38 36 34 33 33 31 30 29 30 30 30 29 29 27 25 24 23 19
12 15 8 4 11 6 9 16 16 21 28 35 39 35 32 32 30 29 29 28 30 33 35 35 37 36 36 35 33 34 34 38 39 39 37 38 37 34 33 31 31 31 32 32 29 28 28 27 24
16 12 8 8 2 2 5 9 9 10 15 13 27 36 34 33 37 35 33 30 34 36 35 34 35 36 36 37 37 39 40 41 43 42 41 39 38 37 37 36 34 32 34 34 32 30 30 29 30
6 14 17 10 9 3 11 6 5 10 9 10 17 20 27 29 30 28 29 33 34 29 34 34 34 35 36 37 41 41 42 43 41 38 38 39 40 39 38 39 38 37 36 35 33 33 32 32 32
8 4 11 8 7 7 10 13 6 10 13 11 11 17 23 21 14 12 11 13 18 20 14 23 28 32 34 36 40 44 44 44 43 41 40 39 39 39 40 40 41 41 40 39 37 35 35 34 33
12 11 4 5 5 9 7 11 15 6 11 3 2 5 9 12 12 11 10 11 11 14 18 23 27 34 38 37 39 44 46 45 45 44 43 41 40 41 42 39 40 42 43 42 41 39 39 38 38
20 13 4 7 6 4 1 7 6 10 6 7 7 5 9 9 14 21 21 20 13 9 14 18 23 30 35 36 38 43 46 47 47 46 45 44 42 41 40 39 38 38 40 42 42 42 41 41 41
10 10 1 3 4 2 5 7 8 10 4 4 7 8 10 12 13 13 17 22 19 18 20 19 17 20 27 30 34 39 44 47 48 47 46 46 44 43 41 40 39 37 36 36 39 42 42 42 40
9 8 5 3 7 5 5 5 6 2 3 6 9 17 12 12 13 17 21 25 23 28 22 20 19 16 22 26 29 33 39 43 46 46 46 45 44 44 43 42 40 38 35 35 36 38 39 40 40
4 8 2 2 1 4 2 4 3 5 13 10 11 13 11 8 11 17 22 25 31 29 27 22 23 25 18 19 25 29 33 37 40 43 45 45 44 43 43 43 42 40 37 36 36 38 38 39 39
2 4 7 4 5 3 3 5 6 5 7 19 14 7 9 10 11 18 19 30 31 31 30 30 26 22 21 17 17 22 26 31 37 41 42 43 43 43 43 43 42 41 39 38 38 38 38 38 38
Wind_Direction
341 342 347 329 324 209 263 84 111 113 102 37 60 25 35 47 17 104 145 142 156 182 154 153 150 141 139 132 65 38 24 88 100 110 111 105 110 114 98 91 109 89 89 98 94 89 82 82 81
344 348 337 301 293 306 64 104 97 71 96 103 84 352 270 93 40 145 160 142 149 179 162 156 157 141 132 122 79 44 78 106 106 100 106 114 116 113 106 109 115 99 100 96 92 89 84 81 78
344 343 300 289 273 294 49 48 98 92 113 135 123 76 14 74 43 125 157 146 153 147 168 157 162 152 145 123 89 54 100 116 116 115 110 112 119 115 106 116 136 113 97 102 95 85 75 78 80
348 331 248 247 267 27 23 54 108 126 103 114 58 108 97 114 161 179 145 156 143 178 195 169 172 165 157 139 106 76 69 78 113 122 127 123 125 125 133 126 133 113 111 108 89 79 79 77 80
328 278 269 245 273 99 63 15 137 178 152 161 181 115 101 143 165 190 150 151 174 180 181 181 176 176 168 160 127 86 91 96 103 126 134 144 137 131 130 137 129 112 114 102 89 85 81 73 69
305 223 287 265 325 92 122 96 223 188 132 94 182 155 107 209 176 172 152 168 197 179 188 187 181 180 176 173 163 132 117 119 136 143 150 149 141 138 145 140 132 128 108 106 102 88 81 70 66
256 293 277 296 317 150 131 145 219 228 148 171 347 318 141 158 207 173 163 172 190 180 194 191 194 184 186 188 188 190 208 170 171 153 143 145 151 153 156 149 136 135 130 125 111 92 76 67 66
302 283 279 286 270 343 100 162 0 326 67 130 154 301 154 178 203 175 161 173 179 194 191 212 195 196 192 197 199 201 214 225 214 220 202 195 173 164 163 158 146 143 147 144 133 100 76 63 57
296 274 260 272 263 209 129 203 159 218 134 176 197 20 142 188 177 167 171 180 177 216 194 191 203 200 200 200 204 209 213 211 214 210 211 215 184 169 167 167 161 159 166 166 148 103 67 56 52
220 261 260 343 4 359 135 256 178 179 208 175 179 193 177 196 182 185 183 185 192 211 199 198 194 201 201 205 207 216 218 217 223 220 205 197 182 190 192 189 184 184 188 187 181 175 78 45 40
233 231 281 340 31 7 323 236 270 222 272 210 198 197 201 205 194 199 198 197 197 206 211 202 199 185 212 212 209 220 216 216 221 220 199 191 212 214 215 210 208 204 205 207 212 219 215 84 154
257 269 276 303 16 341 293 302 278 239 256 290 164 211 199 219 212 212 209 202 200 198 213 213 205 191 215 224 208 215 211 211 222 230 218 206 212 223 224 216 218 218 217 228 231 232 243 241 228
225 271 278 267 273 274 292 292 279 278 256 256 237 170 201 219 236 223 220 219 198 204 209 223 208 206 203 227 225 211 215 213 219 231 230 221 220 226 217 227 226 224 226 229 236 239 251 251 252
249 231 254 246 257 264 257 270 276 269 259 250 238 216 204 209 233 235 224 224 211 203 213 222 218 212 209 219 229 223 218 216 226 236 234 229 228 228 224 223 229 233 230 232 237 245 253 256 246
247 276 264 245 251 241 265 264 239 258 269 268 231 233 227 223 217 234 235 229 233 215 206 220 229 219 217 220 229 232 230 225 226 234 237 232 231 230 230 229 230 232 233 233 235 231 244 236 247
221 248 253 227 222 234 178 259 269 250 233 236 237 235 230 228 227 226 235 237 231 229 216 214 227 227 221 223 224 228 231 231 232 234 236 236 232 234 234 234 233 232 234 235 237 240 245 245 240
228 236 228 251 238 219 173 259 267 252 262 230 234 237 240 229 228 228 232 239 238 236 227 221 226 229 226 224 228 230 233 234 236 239 238 236 235 233 237 238 236 235 236 238 239 241 242 239 244
242 243 239 254 246 198 224 233 240 272 275 264 264 264 263 261 241 233 239 233 243 242 230 233 231 234 230 227 227 232 235 230 230 238 241 240 238 236 236 240 238 237 238 238 238 240 240 244 245
282 327 325 319 12 6 254 264 263 267 262 254 245 242 256 264 264 251 233 237 240 243 233 228 234 237 238 229 225 228 229 230 227 231 240 242 242 239 238 240 241 239 240 243 243 245 244 244 242
225 281 286 294 4 7 304 282 275 279 273 275 267 256 257 255 256 262 251 239 236 246 244 229 231 235 240 244 238 236 236 239 243 238 233 240 243 243 241 241 241 242 242 243 243 244 247 248 240
201 213 204 248 332 311 302 281 271 261 263 255 256 256 250 251 253 251 249 240 238 243 246 240 237 234 240 246 246 239 238 240 239 243 243 241 243 244 243 243 244 243 245 246 248 248 246 247 244
197 189 185 175 168 250 25 294 282 274 256 235 242 241 242 245 245 246 249 247 241 245 252 248 243 241 238 242 241 242 239 235 243 244 246 247 245 244 244 245 244 244 245 247 249 250 249 248 248
200 163 199 189 183 209 239 261 248 226 254 251 253 251 231 238 248 252 255 253 255 257 251 253 250 248 245 243 243 242 243 246 249 249 246 245 250 251 247 246 246 245 245 248 249 250 249 250 251
169 198 187 205 203 229 223 214 224 232 240 245 237 245 246 250 259 254 254 258 253 251 253 246 249 251 253 252 244 242 245 244 244 245 246 246 248 253 252 248 247 246 245 247 248 250 250 251 253
156 149 181 198 208 230 196 199 244 295 282 272 62 43 20 18 21 3 338 305 278 276 264 255 254 254 255 252 248 242 244 244 247 248 247 247 247 248 252 251 248 247 245 246 247 250 251 253 253
187 168 180 196 179 212 28 236 264 226 254 36 62 103 84 79 72 66 41 44 26 321 288 279 264 254 255 251 249 246 245 245 247 248 249 250 250 251 253 255 255 253 250 247 248 250 253 254 255
172 202 292 96 20 68 210 240 284 260 246 167 127 102 101 81 73 35 37 22 14 11 12 3 300 275 259 254 248 245 245 244 247 250 249 249 251 251 251 253 255 253 251 249 248 248 251 253 254
175 141 158 235 153 206 246 243 240 125 128 77 78 95 74 110 25 19 16 13 11 3 1 4 3 318 274 264 258 251 246 246 248 250 248 251 251 248 249 250 251 253 250 249 247 247 249 250 253
153 170 177 179 149 171 161 245 319 100 113 101 93 90 77 60 27 12 3 359 359 350 346 341 342 350 333 273 256 253 249 249 251 250 252 250 249 250 248 249 251 251 250 248 247 247 248 249 251
183 149 181 210 156 239 118 267 282 75 126 118 131 125 83 70 13 357 351 338 337 342 341 337 335 335 339 325 281 265 261 254 250 252 253 254 248 244 246 248 250 251 250 249 246 245 246 248 251